TJS-3                   
1 43874U 18110A   19264.81411167 -.00000004  00000-0  00000+0 0  9992
2 43874   0.0482 286.9190 0006212 284.1508 255.3628  1.00272129  2812
CZ-3C R/B               
1 43875U 18110B   19263.98026425  .00001363  00000-0  54747-3 0  9998
2 43875  28.1533 241.4536 7229660 346.5541   1.3687  2.33364922  6292
TJS-3 AKM               
1 43917U 18110C   19264.76778519  .00000049  00000-0  00000+0 0  9999
2 43917   0.3166  98.8456 0004351  95.4344 141.5666  1.00276129  2676